Location: Althorst
(53.6379°N, 10.7715°E)
Time: 10:29:34
(UTC+00:00)

Cosmos 1689 Rocket - Pass Details

Date: 10 December 2019
Orbit: 371 x 389 km, 97.5° (Epoch: 23 January)

Event Time Altitude Azimuth Distance (km) Brightness Sun altitude
Exits shadow 16:31:45 - 5° (N) 1,833 5.2 -12.9°
Reaches altitude 10° 16:32:41 10° 1° (N) 1,442 4.7 -13.1°
Maximum altitude 16:35:35 40° 290° (WNW) 597 3.4 -13.5°
Drops below altitude 10° 16:38:27 10° 219° (SW) 1,421 5.9 -13.9°
Sets 16:40:28 0° 212° (SSW) 2,268 6.8 -14.1°
